Key statistics
Satellite CZ-6A DEB at a glance.
Uptime
375
Days in orbit
Revolutions
≈ 16.3
Per day
Orbit
LEO
Low Earth Orbit
Inclination
88.4
Latest
Satellite identification and parameters
Extended collection of information and parameters for CZ-6A DEB.
Object identification
Identified? True
Debris? True
Object name: CZ-6A DEB
International designator: 2024-140CE
Object number (NORAD): 60677
Object ID (CCSDS): 60677
Country: PEOPLES REPUBLIC OF CHINA (PRC)
Current information (Y/N): Y
RCS size: MEDIUM
Orbital parameters
Decay date: Aug. 16, 2025
Period: 88.494 minutes
Inclination: 88.4141 deg
SMA: 6578.132 km
Apoapsis: 201.493 km
Periapsis: 198.5 km
RAAN: 271.1956 deg
Eccentricy: 0.0002275
Argument of periapsis: 299.7309 deg
Mean anomaly: 60.3767 deg
Mean motion: 16.27229907 rev/day
Mean motion (dot): 0.10953787 rev/day2
B* drag term: 0.0032573 1/REarth
Two-line elements (TLE)
Creation date: Aug. 16, 2025, 5:54 p.m.
Reference frame: TEME
Reference center: EARTH
Epoch: Aug. 16, 2025, 7:43 a.m. UTC
TLE line 0: 0 CZ-6A DEB
TLE line 1: 1 60677U 24140CE 25228.32218623 .10953787 -13020-5 32573-2 0 9997
TLE line 2: 2 60677 88.4141 271.1956 0002275 299.7309 60.3767 16.27229907 56577
Live tracking on map
Satellite CZ-6A DEB has decayed and is no longer in orbit. No tracking available.
In-orbit conjunctions
Satellite CZ-6A DEB has decayed and is no longer in orbit. No conjunctions available.
Associated space launch
18 Low Earth Orbit communication satellites with Ku, Q and V band payloads for the G60 constellation operated by Shanghai Spacecom Satellite Technology (SSST) with funding backed by the Shanghai local government. Initial constellation will consist of 1296 satellites by 2027 with long term plans to expand it to 12000 satellites.
CZ-6A DEB was lifted into orbit during the mission ‘Long March 6A | G60 Polar Group 01’, on board a Long March 6A space rocket.
The launch took place on Aug. 6, 2024, 6:42 a.m. from Launch Complex 9A.
For more information about the launch, click the button.
Long March 6A | G60 Polar Group 01
Agency: N/A
Status: Launch Successful
Launch date: Aug. 6, 2024, 6:42 a.m. UTC
Rocket: Long March 6A
Launch pad: Launch Complex 9A
Location: Taiyuan Satellite Launch Center, People's Republic of China
...
Latest news about this satellite
Brightness of first Chinese broadband constellation satellites alarms astronomers
The first satellites of a Chinese broadband constellation are significantly brighter than those of Western systems, posing a new challenge for astronomers.
Chinese rocket stage breaks up into cloud of more than 700 pieces of space debris
HELSINKI — A Chinese Long March 6A rocket’s upper stage has fragmented into a cloud of over 700 pieces of space debris, adding to concerns about long-term orbital safety. China […]
China's Thousand Sails Megaconstellation Kicks Off with Dangerous Debris Field
China's Thousand Sails Megaconstellation Kicks Off with Dangerous Debris Field
Newsletter sign-up
Weekly statistics, charts and insights to help you stay on top of the space industry.
